Content
SEND FEEDBACK

Daily
Averages
Monthly
Summary
United States of America

ROXBORO, NORTH CAROLINA


Home > North America > United States > North Carolina
Elevation: 730 feet     Latitude: 36 24N     Longitude: 079 00W

WEATHER
 
SELECT A DAY
Number of Records: 335,649;   Date Range: 10/4/00 - 4/17/14
 
SHARE

PRINT THIS DATA

[ ← Previous Day ]
WEATHER ALMANAC - JANUARY 31, 2013
[ Next Day → ]
[ °C ]   °F
Weather ElementAverageHighLow
Temperature43.7 °F57.2 °F (12:35 am)32 °F (11:15 pm)
Dewpoint28 °F55.4 °F (12:35 am)17.6 °F (1:55 pm)
Humidity56.2 %100 % (12:55 am)32 % (1:55 pm)
Barometer29.80 in30.00 in (8:35 pm)29.44 in (12:55 am)
Wind Speed11.5 mph24.2 mph (2:55 am)
Wind Gust38 mph (12:55 am)
Weather ElementAverage
Visibility9.9 mi
Wind DirectionWSW (256.6 °)

Weather ElementTotal
Precipitation0.19 in
Heating Degree Days20.4 (Base 65)
Averaged from 71 records on January 31, 2013
WEATHER CONDITIONS BREAKOUT
WIND DIRECTION BREAKOUT
WEATHER BY HOUR - JANUARY 31, 2013
[ °C ]   °F
Local TimeTemperatureDewpointHumidityBarometerVisibilityWind DirectionWind SpeedGust SpeedPrecipitationEventsConditions
12:35 AM57.2 °F55.4 °F94 %29.46 in7.0 miSW (230°)23.0 mph29.9 mph0.07 inRainRain
12:55 AM55.4 °F55.4 °F100 %29.44 in7.0 miSW (220°)20.7 mph38.0 mph0.12 inRainLight Rain
1:15 AM55.4 °F53.6 °F94 %29.44 in10.0 miSW (220°)16.1 mph23.0 mphOvercast
1:35 AM55.4 °F51.8 °F88 %29.46 in10.0 miSW (220°)18.4 mph31.1 mphOvercast
1:55 AM53.6 °F50.0 °F88 %29.45 in10.0 miSW (230°)18.4 mph27.6 mphRainLight Rain
2:15 AM53.6 °F50.0 °F88 %29.47 in10.0 miSW (230°)16.1 mph21.9 mphOvercast
2:35 AM53.6 °F48.2 °F82 %29.47 in10.0 miSW (230°)19.6 mph31.1 mphOvercast
2:55 AM51.8 °F46.4 °F82 %29.49 in10.0 miSW (230°)24.2 mph33.4 mphOvercast
3:15 AM51.8 °F44.6 °F76 %29.49 in10.0 miSW (230°)16.1 mph32.2 mphOvercast
3:35 AM51.8 °F42.8 °F71 %29.50 in10.0 miWSW (240°)18.4 mph33.4 mphOvercast
3:55 AM50.0 °F42.8 °F76 %29.51 in10.0 miWSW (250°)16.1 mph28.8 mphOvercast
4:15 AM50.0 °F44.6 °F82 %29.53 in10.0 miWest (260°)12.7 mph27.6 mphRainRain
4:35 AM50.0 °F42.8 °F76 %29.55 in10.0 miWSW (250°)10.4 mph21.9 mphOvercast
4:55 AM50.0 °F42.8 °F76 %29.57 in10.0 miWSW (250°)11.5 mph19.6 mphOvercast
5:15 AM48.2 °F41.0 °F76 %29.59 in10.0 miWest (270°)10.4 mph25.3 mphOvercast
5:35 AM48.2 °F35.6 °F62 %29.60 in10.0 miWest (260°)15.0 mph23.0 mphMostly Cloudy
5:55 AM46.4 °F33.8 °F62 %29.62 in10.0 miWest (270°)11.5 mph18.4 mphScattered Clouds
6:15 AM46.4 °F33.8 °F62 %29.64 in10.0 miWest (260°)10.4 mph20.7 mphClear
6:35 AM44.6 °F32.0 °F61 %29.67 in10.0 miWest (270°)9.2 mph23.0 mphScattered Clouds
6:55 AM44.6 °F32.0 °F61 %29.69 in10.0 miWest (280°)18.4 mph32.2 mphScattered Clouds
7:15 AM42.8 °F30.2 °F61 %29.71 in10.0 miWest (280°)10.4 mph26.5 mphScattered Clouds
7:35 AM42.8 °F32.0 °F66 %29.72 in10.0 miWest (280°)9.2 mph20.7 mphClear
7:55 AM42.8 °F30.2 °F61 %29.74 in10.0 miWest (280°)13.8 mph23.0 mphClear
8:15 AM41.0 °F28.4 °F61 %29.76 in10.0 miWest (280°)10.4 mph27.6 mphClear
8:35 AM42.8 °F26.6 °F53 %29.78 in10.0 miWest (270°)8.1 mph21.9 mphClear
8:55 AM42.8 °F28.4 °F57 %29.80 in10.0 miWNW (290°)6.9 mph23.0 mphClear
9:15 AM42.8 °F24.8 °F49 %29.82 in10.0 miWNW (300°)13.8 mph23.0 mphClear
9:35 AM42.8 °F26.6 °F53 %29.82 in10.0 miWest (260°)13.8 mph24.2 mphClear
9:55 AM42.8 °F24.8 °F49 %29.84 in10.0 miWest (270°)15.0 mph24.2 mphClear
10:15 AM42.8 °F24.8 °F49 %29.85 in10.0 miWest (270°)12.7 mph25.3 mphClear
10:35 AM42.8 °F24.8 °F49 %29.85 in10.0 miWest (260°)9.2 mph25.3 mphClear
10:55 AM44.6 °F23.0 °F43 %29.86 in10.0 miWest (280°)13.8 mph24.2 mphClear
11:15 AM44.6 °F24.8 °F46 %29.87 in10.0 miWest (260°)10.4 mph23.0 mphClear
11:35 AM42.8 °F23.0 °F46 %29.87 in10.0 miWest (270°)13.8 mph28.8 mphClear
11:55 AM44.6 °F21.2 °F39 %29.87 in10.0 miWest (270°)17.3 mph32.2 mphClear
12:15 PM44.6 °F19.4 °F37 %29.86 in10.0 miWNW (300°)15.0 mph29.9 mphClear
12:35 PM44.6 °F19.4 °F37 %29.86 in10.0 miWest (270°)9.2 mph24.2 mphClear
12:55 PM46.4 °F21.2 °F37 %29.85 in10.0 miWest (280°)12.7 mph23.0 mphScattered Clouds
1:15 PM44.6 °F19.4 °F37 %29.85 in10.0 miWest (270°)15.0 mph24.2 mphScattered Clouds
1:35 PM46.4 °F21.2 °F37 %29.85 in10.0 miWSW (240°)16.1 mph29.9 mphMostly Cloudy
1:55 PM46.4 °F17.6 °F32 %29.85 in10.0 miWest (270°)13.8 mph27.6 mphMostly Cloudy
2:15 PM44.6 °F17.6 °F34 %29.87 in10.0 miWest (270°)10.4 mph31.1 mphScattered Clouds
2:35 PM46.4 °F19.4 °F34 %29.87 in10.0 miWest (280°)16.1 mph35.7 mphMostly Cloudy
2:55 PM44.6 °F17.6 °F34 %29.87 in10.0 miWNW (290°)18.4 mph29.9 mphScattered Clouds
3:15 PM46.4 °F17.6 °F32 %29.88 in10.0 miWNW (300°)19.6 mph26.5 mphScattered Clouds
3:35 PM44.6 °F19.4 °F37 %29.90 in10.0 miWest (280°)15.0 mph23.0 mphClear
3:55 PM44.6 °F19.4 °F37 %29.90 in10.0 miWest (270°)16.1 mph27.6 mphScattered Clouds
4:15 PM44.6 °F19.4 °F37 %29.92 in10.0 miWest (280°)11.5 mph25.3 mphScattered Clouds
4:35 PM42.8 °F19.4 °F39 %29.93 in10.0 miWest (280°)11.5 mph25.3 mphClear
4:55 PM42.8 °F19.4 °F39 %29.94 in10.0 miNW (310°)6.9 mph24.2 mphClear
5:15 PM42.8 °F19.4 °F39 %29.94 in10.0 miWest (280°)8.1 mph16.1 mphClear
5:35 PM41.0 °F19.4 °F42 %29.94 in10.0 miWest (280°)4.6 mphClear
5:55 PM41.0 °F19.4 °F42 %29.95 in10.0 miWest (280°)4.6 mphClear
6:15 PM39.2 °F21.2 °F49 %29.96 in10.0 miWest (280°)6.9 mphClear
6:35 PM39.2 °F19.4 °F45 %29.97 in10.0 miWest (270°)8.1 mph19.6 mphClear
6:55 PM39.2 °F19.4 °F45 %29.97 in10.0 miWest (270°)6.9 mph16.1 mphClear
7:15 PM39.2 °F19.4 °F45 %29.98 in10.0 miWest (260°)9.2 mph16.1 mphClear
7:35 PM39.2 °F17.6 °F42 %29.99 in10.0 miWest (280°)8.1 mph16.1 mphClear
7:55 PM37.4 °F19.4 °F48 %29.99 in10.0 miWest (260°)4.6 mphClear
8:15 PM37.4 °F19.4 °F48 %29.99 in10.0 miWSW (240°)3.5 mphClear
8:35 PM35.6 °F21.2 °F56 %30.00 in10.0 miSW (230°)5.8 mphClear
8:55 PM33.8 °F21.2 °F60 %30.00 in10.0 miWSW (240°)3.5 mphClear
9:15 PM33.8 °F21.2 °F60 %29.99 in10.0 miSW (230°)5.8 mphClear
9:35 PM33.8 °F21.2 °F60 %30.00 in10.0 miSW (230°)5.8 mphClear
9:55 PM33.8 °F21.2 °F60 %29.99 in10.0 miSW (230°)4.6 mphClear
10:15 PM33.8 °F21.2 °F60 %30.00 in10.0 miWSW (240°)4.6 mphClear
10:35 PM33.8 °F21.2 °F60 %30.00 in10.0 miSW (220°)4.6 mphClear
10:55 PM33.8 °F19.4 °F56 %30.00 in10.0 miWSW (240°)3.5 mphClear
11:15 PM32.0 °F21.2 °F64 %30.00 in10.0 miSW (220°)3.5 mphClear
11:35 PM32.0 °F21.2 °F64 %30.00 in10.0 miSW (230°)4.6 mphClear
11:55 PM32.0 °F21.2 °F64 %29.99 in10.0 miCalmClear
Hourly data recorded from KTDF, located 7.99 miles away from Roxboro, North Carolina







STORIES FROM OUR PARTNERS